Telluride, CO

3:22 AM MST on December 13, 2017 (GMT -0700)
Telluride Regional

Weather History for KTEX - October, 2012

Change the Weather History Date:

Thursday, October 4, 2012

  Actual Average Record
Temperature  
Mean Temperature 53 °F -  
Max Temperature 62 °F 55 °F 67 °F (2017)
Min Temperature 44 °F 35 °F 23 °F (2002)
Degree Days  
Heating Degree Days 12    
Growing Degree Days 3 (Base 50)    
Moisture  
Dew Point 23 °F    
Average Humidity 30    
Maximum Humidity 46    
Minimum Humidity 22    
Precipitation  
Precipitation 0.00 in - - ()
Sea Level Pressure  
Sea Level Pressure 30.31 in    
Wind  
Wind Speed 8 mph (South)    
Max Wind Speed 22 mph    
Max Gust Speed 32 mph    
Visibility 10 miles    
Events      
Averages and records for this station are not official NWS values.
T = Trace of Precipitation, MM = Missing Value Source: NWS Daily Summary

Daily Weather History Graph

Daily Weather History Graph

Search for Another Location

Airport or City:

Trip Planner

Search our weather history database for the weather conditions in past years. The results will help you decide how hot, cold, wet, or windy it might be!

Date:

Astronomy

Oct. 04, 2012 Rise Set
Actual Time 7:10 AM MDT 6:49 PM MDT
Civil Twilight 6:44 AM MDT 7:15 PM MDT
Nautical Twilight 6:13 AM MDT 7:45 PM MDT
Astronomical Twilight 5:43 AM MDT 8:16 PM MDT
Moon 9:31 PM MDT (10/4) 11:25 AM MDT (10/4)
Length of Visible Light 12h 31m
Length of Day
11h 38m
Waning Gibbous, 81% of the Moon is Illuminated
Oct 4
Waning Gibbous
Oct 8
Last Quarter
Oct 15
New
Oct 21
First Quarter
Oct 29
Full

Hourly Weather History & Observations

Time (MDT) Temp. Windchill Dew Point Humidity Pressure Visibility Wind Dir Wind Speed Gust Speed Precip Events Conditions
12:15 AM 51.8 °F - 23.0 °F 33% 30.33 in 10.0 mi ESE 5.8 mph - N/A   Scattered Clouds
12:35 AM 50.0 °F - 24.8 °F 37% 30.33 in 10.0 mi ESE 5.8 mph - N/A   Scattered Clouds
12:55 AM 50.0 °F - 23.0 °F 35% 30.33 in 10.0 mi ESE 6.9 mph - N/A   Clear
1:15 AM 50.0 °F - 23.0 °F 35% 30.33 in 10.0 mi SE 5.8 mph - N/A   Scattered Clouds
1:35 AM 48.2 °F - 23.0 °F 37% 30.33 in 10.0 mi SE 6.9 mph - N/A   Clear
1:55 AM 46.4 °F 43.5 °F 23.0 °F 40% 30.33 in 10.0 mi East 5.8 mph - N/A   Scattered Clouds
2:15 AM 46.4 °F 43.5 °F 23.0 °F 40% 30.33 in 10.0 mi ESE 5.8 mph - N/A   Scattered Clouds
2:35 AM 46.4 °F 43.5 °F 23.0 °F 40% 30.33 in 10.0 mi SE 5.8 mph - N/A   Clear
2:55 AM 46.4 °F 44.3 °F 23.0 °F 40% 30.34 in 10.0 mi ESE 4.6 mph - N/A   Clear
3:15 AM 46.4 °F 42.9 °F 23.0 °F 40% 30.33 in 10.0 mi SE 6.9 mph - N/A   Clear
3:35 AM 46.4 °F 42.9 °F 23.0 °F 40% 30.33 in 10.0 mi ESE 6.9 mph - N/A   Clear
3:55 AM 46.4 °F 43.5 °F 23.0 °F 40% 30.33 in 10.0 mi ESE 5.8 mph - N/A   Clear
4:15 AM 46.4 °F 43.5 °F 23.0 °F 40% 30.33 in 10.0 mi ESE 5.8 mph - N/A   Clear
4:35 AM 44.6 °F 40.7 °F 23.0 °F 43% 30.33 in 10.0 mi ESE 6.9 mph - N/A   Clear
4:55 AM 44.6 °F 42.2 °F 23.0 °F 43% 30.33 in 10.0 mi ESE 4.6 mph - N/A   Clear
5:15 AM 44.6 °F 40.7 °F 24.8 °F 46% 30.33 in 10.0 mi SSE 6.9 mph - N/A   Clear
5:35 AM 46.4 °F 42.9 °F 23.0 °F 40% 30.33 in 10.0 mi SE 6.9 mph - N/A   Clear
5:55 AM 44.6 °F 41.4 °F 23.0 °F 43% 30.34 in 10.0 mi SE 5.8 mph - N/A   Clear
6:15 AM 44.6 °F 41.4 °F 23.0 °F 43% 30.34 in 10.0 mi East 5.8 mph - N/A   Clear
6:35 AM 44.6 °F 41.4 °F 23.0 °F 43% 30.34 in 10.0 mi ESE 5.8 mph - N/A   Clear
6:55 AM 44.6 °F 41.4 °F 23.0 °F 43% 30.34 in 10.0 mi ESE 5.8 mph - N/A   Clear
7:15 AM 44.6 °F 41.4 °F 23.0 °F 43% 30.35 in 10.0 mi East 5.8 mph - N/A   Clear
7:35 AM 44.6 °F - 21.2 °F 39% 30.35 in 10.0 mi Calm Calm - N/A   Clear
7:55 AM 46.4 °F - 23.0 °F 40% 30.35 in 10.0 mi Calm Calm - N/A   Clear
8:15 AM 46.4 °F - 23.0 °F 40% 30.35 in 10.0 mi Calm Calm - N/A   Clear
8:35 AM 50.0 °F - 23.0 °F 35% 30.35 in 10.0 mi SSW 3.5 mph - N/A   Clear
8:55 AM 53.6 °F - 23.0 °F 30% 30.35 in 10.0 mi Calm Calm - N/A   Clear
9:15 AM 55.4 °F - 23.0 °F 29% 30.35 in 10.0 mi Calm Calm - N/A   Clear
9:35 AM 55.4 °F - 24.8 °F 31% 30.35 in 10.0 mi Calm Calm - N/A   Clear
9:55 AM 55.4 °F - 24.8 °F 31% 30.35 in 10.0 mi SSW 13.8 mph 18.4 mph N/A   Clear
10:15 AM 59.0 °F - 24.8 °F 27% 30.35 in 10.0 mi SSW 11.5 mph 21.9 mph N/A   Clear
10:35 AM 59.0 °F - 24.8 °F 27% 30.35 in 10.0 mi SSW 12.7 mph 19.6 mph N/A   Clear
10:55 AM 60.8 °F - 24.8 °F 25% 30.34 in 10.0 mi SSW 15.0 mph 21.9 mph N/A   Clear
11:15 AM 60.8 °F - 24.8 °F 25% 30.34 in 10.0 mi West 11.5 mph 26.5 mph N/A   Clear
11:35 AM 60.8 °F - 24.8 °F 25% 30.34 in 10.0 mi WSW 15.0 mph 21.9 mph N/A   Clear
11:55 AM 60.8 °F - 24.8 °F 25% 30.34 in 10.0 mi SW 12.7 mph 26.5 mph N/A   Clear
12:35 PM 62.6 °F - 23.0 °F 22% 30.33 in 10.0 mi SSW 17.3 mph 26.5 mph N/A   Scattered Clouds
12:55 PM 62.6 °F - 23.0 °F 22% 30.33 in 10.0 mi SW 12.7 mph 19.6 mph N/A   Scattered Clouds
1:15 PM 62.6 °F - 23.0 °F 22% 30.33 in 10.0 mi West 12.7 mph 23.0 mph N/A   Scattered Clouds
1:35 PM 62.6 °F - 23.0 °F 22% 30.32 in 10.0 mi West 13.8 mph 19.6 mph N/A   Scattered Clouds
1:55 PM 62.6 °F - 23.0 °F 22% 30.31 in 10.0 mi SW 11.5 mph 25.3 mph N/A   Mostly Cloudy
2:15 PM 62.6 °F - 23.0 °F 22% 30.31 in 10.0 mi SW 19.6 mph 32.2 mph N/A   Mostly Cloudy
2:35 PM 62.6 °F - 23.0 °F 22% 30.30 in 10.0 mi WSW 13.8 mph 26.5 mph N/A   Mostly Cloudy
2:55 PM 62.6 °F - 23.0 °F 22% 30.30 in 10.0 mi SW 17.3 mph 28.8 mph N/A   Scattered Clouds
3:15 PM 62.6 °F - 23.0 °F 22% 30.30 in 10.0 mi WSW 17.3 mph 24.2 mph N/A   Scattered Clouds
3:35 PM 60.8 °F - 23.0 °F 23% 30.30 in 10.0 mi SW 12.7 mph 25.3 mph N/A   Scattered Clouds
3:55 PM 60.8 °F - 23.0 °F 23% 30.29 in 10.0 mi SW 8.1 mph 19.6 mph N/A   Scattered Clouds
4:15 PM 60.8 °F - 23.0 °F 23% 30.28 in 10.0 mi SW 12.7 mph 27.6 mph N/A   Mostly Cloudy
4:55 PM 62.6 °F - 23.0 °F 22% 30.27 in 10.0 mi SSW 18.4 mph 28.8 mph N/A   Mostly Cloudy
5:15 PM 60.8 °F - 23.0 °F 23% 30.27 in 10.0 mi SSW 21.9 mph 28.8 mph N/A   Mostly Cloudy
5:35 PM 60.8 °F - 23.0 °F 23% 30.27 in 10.0 mi SSW 20.7 mph 26.5 mph N/A   Mostly Cloudy
5:55 PM 60.8 °F - 21.2 °F 22% 30.27 in 10.0 mi SSW 20.7 mph 28.8 mph N/A   Mostly Cloudy
6:15 PM 59.0 °F - 23.0 °F 25% 30.27 in 10.0 mi South 12.7 mph 27.6 mph N/A   Overcast
6:35 PM 59.0 °F - 21.2 °F 23% 30.27 in 10.0 mi SSW 9.2 mph 18.4 mph N/A   Overcast
6:55 PM 59.0 °F - 23.0 °F 25% 30.27 in 10.0 mi SSW 12.7 mph 19.6 mph N/A   Overcast
7:15 PM 59.0 °F - 23.0 °F 25% 30.27 in 10.0 mi SW 8.1 mph - N/A   Overcast
7:35 PM 59.0 °F - 23.0 °F 25% 30.28 in 10.0 mi SSW 10.4 mph - N/A   Overcast
7:55 PM 57.2 °F - 21.2 °F 25% 30.28 in 10.0 mi SSW 10.4 mph 21.9 mph N/A   Overcast
8:15 PM 57.2 °F - 21.2 °F 25% 30.27 in 10.0 mi WSW 9.2 mph 19.6 mph N/A   Scattered Clouds
8:35 PM 57.2 °F - 21.2 °F 25% 30.27 in 10.0 mi SSW 9.2 mph 20.7 mph N/A   Scattered Clouds
8:55 PM 55.4 °F - 21.2 °F 26% 30.27 in 10.0 mi SSW 15.0 mph 23.0 mph N/A   Mostly Cloudy
9:15 PM 57.2 °F - 21.2 °F 25% 30.28 in 10.0 mi SSW 8.1 mph 17.3 mph N/A   Mostly Cloudy
9:35 PM 57.2 °F - 21.2 °F 25% 30.27 in 10.0 mi SW 9.2 mph - N/A   Overcast
9:55 PM 55.4 °F - 21.2 °F 26% 30.27 in 10.0 mi SSW 10.4 mph 19.6 mph N/A   Overcast
10:15 PM 57.2 °F - 21.2 °F 25% 30.27 in 10.0 mi SSW 9.2 mph 25.3 mph N/A   Overcast
10:35 PM 55.4 °F - 21.2 °F 26% 30.28 in 10.0 mi WSW 5.8 mph - N/A   Overcast
10:55 PM 55.4 °F - 23.0 °F 29% 30.27 in 10.0 mi West 11.5 mph 19.6 mph N/A   Overcast
11:15 PM 55.4 °F - 21.2 °F 26% 30.27 in 10.0 mi West 6.9 mph 16.1 mph N/A   Overcast
11:35 PM 55.4 °F - 21.2 °F 26% 30.27 in 10.0 mi SSW 4.6 mph - N/A   Overcast
11:55 PM 55.4 °F - 21.2 °F 26% 30.26 in 10.0 mi WSW 8.1 mph - N/A   Overcast